Regional Weather Roundup
Issued by NWS

Home | Current Version | Previous Version | Graphics & Text | Print | Product List | Glossary On
Versions: 1 2 3 4 5 6 7 8 9 10 11 12 13 14 15 16 17 18 19 20 21 22 23 24 25 26 27 28 29 30 31 32 33 34 35 36 37 38 39 40 41 42 43 44 45 46 47 48 49 50
000
ASUS43 KFSD 050610
RWRSD

WEATHER ROUNDUP FOR SOUTH DAKOTA
NATIONAL WEATHER SERVICE SIOUX FALLS SD
100 AM CDT SAT SEP 05 2015

NOTE: "FAIR" INDICATES FEW OR NO CLOUDS BELOW 12,000 FEET WITH NO
SIGNIFICANT WEATHER AND/OR OBSTRUCTIONS TO VISIBILITY.


SDZ001>005-009-010-012>017-050700-
NORTHWEST AND NORTH CENTRAL SOUTH DAKOTA

CITY           SKY/WX    TMP DP  RH WIND       PRES   REMARKS
BUFFALO          N/A     65  59  81 N14       29.80F
MOBRIDGE       PTCLDY    73  72  96 E7        29.77F
$$

SDZ012>016-024>037-041>051-057-063-072>074-050700-
SOUTHWEST AND SOUTH CENTRAL SOUTH DAKOTA

CITY           SKY/WX    TMP DP  RH WIND       PRES   REMARKS
RAPID CTY ARPT PTCLDY    63  59  87 CALM      29.82R
PIERRE         PTCLDY    70  66  87 E7        29.75S
CUSTER         MOCLDY    67  43  41 CALM      29.98S
ELLSWORTH AFB  CLOUDY    74  59  59 SW3       29.82R
PHILIP         PTCLDY    68  64  87 E10       29.77R
PINE RIDGE     CLOUDY    77  52  41 SW7       29.83F
WINNER         FAIR      76  62  62 SE6       29.79S
$$

SDZ004>011-016>023-039-040-050700-
NORTHEAST SOUTH DAKOTA

CITY           SKY/WX    TMP DP  RH WIND       PRES   REMARKS
ABERDEEN       PTCLDY    73  70  90 CALM      29.81R
WATERTOWN      CLEAR     75  69  81 S7        29.85S
BROOKINGS      MOCLDY    75  68  78 SE14      29.88S
SISSETON         N/A     70  68  93 CALM      29.82S
$$

SDZ017-020-022-023-036>040-048>070-050700-
SOUTHEAST SOUTH DAKOTA

CITY           SKY/WX    TMP DP  RH WIND       PRES   REMARKS
SIOUX FALLS    PTCLDY    77  68  73 S18G24    29.86S
HURON          PTCLDY    75  71  87 SE10      29.79S
CHAMBERLAIN    PTCLDY    71  68  90 SE7       29.78S
MITCHELL       PTCLDY    75  71  87 SE7       29.80S
YANKTON        CLEAR     75  68  78 S10G18    29.82S
$$

ABBREVIATIONS USED IN REMARKS
   TC - TEMPERATURE IN CELSIUS
  WCI - WIND CHILL INDEX
   HX - HEAT INDEX
  VSB - VISIBILITY



USA.gov is the U.S. government's official web portal to all federal, state and local government web resources and services.